Preview of NWS' New Version of Forecast
This preview is not operational and should not be used for support decisions.

Regional Weather Roundup (RWR)

Issued by National Weather Service (NWS)

                            
000
ASUS43 KBIS 180202
RWRND 

NORTH DAKOTA REGIONAL WEATHER ROUNDUP
NATIONAL WEATHER SERVICE BISMARCK ND
800 PM CST SUN FEB 17 2019

NOTE: "FAIR" INDICATES FEW OR NO CLOUDS BELOW 12,000 FEET WITH NO
SIGNIFICANT WEATHER AND/OR OBSTRUCTIONS TO VISIBILITY.


NDZ001>003-009>011-017-180300-
NORTHWEST NORTH DAKOTA
  
CITY           SKY/WX    TMP DP  RH WIND       PRES   REMARKS
WILLISTON      FLURRIES   6   0  76 N8        30.35R WCI  -7          
MINOT          CLOUDY     4  -1  80 NW9       30.34R WCI -10          
MINOT AFB      CLOUDY     4  -1  79 N8        30.34R WCI  -9          
$$
 
NDZ018>021-031>035-040>046-180300-
SOUTHWEST NORTH DAKOTA
  
CITY           SKY/WX    TMP DP  RH WIND       PRES   REMARKS
BISMARCK       MOCLDY     6   1  80 N8        30.32R WCI  -7          
DICKINSON      CLOUDY     6   1  80 N8        30.25R WCI  -7          
GARRISON         N/A      3  -1  83 N12       30.32R WCI -13          
HETTINGER ARPT CLOUDY     3  -3  76 NW15      30.25R WCI -16          
$$
 
NDZ004>008-012>016-024-026-027-054-180300-
NORTHEAST NORTH DAKOTA
  
CITY           SKY/WX    TMP DP  RH WIND       PRES   REMARKS
GRAND FORKS    CLEAR      0  -5  79 N17       30.33R WCI -21          
GRND FRKS AFB  PTCLDY     2  -4  77 N12       30.34R WCI -15          
DEVILS LAKE    CLOUDY     3  -1  83 N13       30.33R WCI -14          
$$
 
NDZ022-023-025-028>030-036>039-047>053-180300-
SOUTHEAST NORTH DAKOTA
  
CITY           SKY/WX    TMP DP  RH WIND       PRES   REMARKS
FARGO          CLEAR      4   0  83 N16       30.27R WCI -15          
JAMESTOWN      CLOUDY     8   3  80 N14       30.27R WCI  -8          
$$